Home   Weather   Wallisellen   Past weeks

Flag for Switzerland Past Weather in Wallisellen, Zurich, Switzerland — Yesterday and Last 2 Weeks

Now
22 °F

Cold.


Feels Like: 17 °F
Forecast: 18 / 24 °F
Wind: 3 mph from North

Location: Zuerich-Fluntern

Current Time: Jan 17, 2017 at 1:48:28 am

Latest Report: Jan 17, 2017 at 12:00 am


Visibility: N/A

Pressure: 30.34 "Hg

Humidity: 87%

Dew Point: 18 °F

Location of WallisellenLocation

Past Weather in Wallisellen — Graph

°F

Wallisellen Temperature Yesterday

Maximum temperature yesterday: 29 °F (at 12:00 pm)
Minimum temperature yesterday: 21 °F (at 10:00 pm)
Average temperature yesterday: 25 °F

High & Low Weather Summary for the Past Weeks

 TemperatureHumidityPressure
High41 °F (Jan 12, 2:00 pm)100% (Jan 2, 3:00 am)30.74 "Hg (Jan 2, 3:00 am)
Low10 °F (Jan 7, 4:00 am)65% (Jan 4, 11:00 am)29.55 "Hg (Jan 13, 12:00 am)
Average28 °F87%30.24 "Hg
* Reported Jan 2 12:00 am — Jan 17 12:00 am, Wallisellen, Weather by CustomWeather, © 2017

Note: Actual official high and low records may vary slightly from our data, if they occured in-between our weather recording intervals... More about our weather records

Advertising

Wallisellen Weather History for the Previous 24 Hours

Scroll right to see more
 ConditionsComfort  
Time TempWeatherWind HumidityBarometerVisibility
12:00 am
Tue, Jan 17
22 °FCold.3 mph87%30.34 "HgN/A
11:00 pm
Mon, Jan 16
21 °FCold.2 mph86%30.34 "HgN/A
10:00 pm21 °FCold.5 mph83%30.34 "HgN/A
9:00 pm23 °FCold.5 mph79%30.32 "HgN/A
8:00 pm24 °FCold.5 mph81%30.30 "HgN/A
7:00 pm24 °FIce fog.2 mph87%30.29 "HgN/A
6:00 pm25 °FChilly.3 mph89%30.28 "HgN/A
5:00 pm25 °FChilly.5 mph91%30.27 "HgN/A
4:00 pm25 °FCold.5 mph89%30.26 "HgN/A
3:00 pm26 °FChilly.6 mph82%30.24 "HgN/A
2:00 pm28 °FChilly.7 mph70%30.22 "HgN/A
1:00 pm27 °FOvercast.7 mph75%30.24 "HgN/A
12:00 pm29 °FChilly.5 mph78%30.23 "HgN/A
11:00 am26 °FChilly.5 mph84%30.25 "HgN/A
10:00 am25 °FChilly.2 mph87%30.25 "HgN/A
9:00 am24 °FCold.1 mph91%30.25 "HgN/A
8:00 am24 °FCold.2 mph89%30.24 "HgN/A
7:00 am22 °FCold.3 mph95%30.24 "HgN/A
6:00 am24 °FCold.1 mph93%30.22 "HgN/A
5:00 am25 °FCold.1 mph94%30.22 "HgN/A
4:00 am24 °FCold.2 mph91%30.23 "HgN/A
3:00 am25 °FChilly.1 mph91%30.22 "HgN/A
2:00 am27 °FChilly.2 mph87%30.22 "HgN/A
1:00 am27 °FChilly.2 mph86%30.23 "HgN/A
Weather by CustomWeather, © 2017

See weather overviewHow to use our weather pages